Location: Unspecified
(0.0000°N, 0.0000°E)
Time: 21:39:35
(UTC+00:00)

ISS - Pass Details

Date: 13 January 2026
Orbit: 414 x 424 km, 51.6° (Epoch: 13 January)

Event Time Altitude Azimuth Distance (km) Brightness Sun altitude
Exits shadow 04:18:31 10° 182° (S) 1,481 -0.8 -25.5°
Drops below altitude 10° 04:18:35 10° 181° (S) 1,506 -0.7 -25.4°
Sets 04:21:00 0° 165° (SSE) 2,372 0.6 -24.9°
